Date,TemperatureHighF,TemperatureAvgF,TemperatureLowF,DewpointHighF,DewpointAvgF,DewpointLowF,HumidityHigh,HumidityAvg,HumidityLow,PressureMaxIn,PressureMinIn,WindSpeedMaxMPH,WindSpeedAvgMPH,GustSpeedMaxMPH,PrecipitationSumIn
2013-1-1,38,31,20,27,18,6,78,60,48,29.93,29.63,12,3,21,0.01
2013-1-2,30,18,6,15,8,2,92,67,50,30.27,29.75,7,2,16,0.00
2013-1-3,25,13,-1,10,0,-7,82,59,30,30.34,29.93,6,1,12,0.00
2013-1-4,40,26,8,25,18,7,93,75,52,30.17,29.63,7,1,17,0.01
2013-1-5,43,30,18,25,21,17,93,70,43,30.35,29.74,9,1,17,0.00
2013-1-6,44,31,20,31,26,18,94,83,56,30.26,29.57,6,1,13,0.00
2013-1-7,43,29,20,31,23,18,94,80,46,30.45,29.75,5,1,13,0.00
2013-1-8,48,34,19,31,27,18,94,79,50,30.46,29.20,7,1,17,0.00
2013-1-9,45,34,19,38,29,17,95,83,59,30.42,29.39,6,1,12,0.00
2013-1-10,48,40,28,30,25,23,88,57,41,30.25,29.44,10,2,26,0.00
2013-1-11,39,31,22,35,28,20,95,88,68,30.29,30.08,2,0,5,0.16
2013-1-12,43,40,36,42,38,35,96,96,95,30.14,30.04,2,0,2,0.04
2013-1-13,52,46,40,51,46,39,97,97,96,30.12,29.84,4,1,9,0.12
2013-1-14,61,51,41,54,44,30,97,77,43,29.92,29.43,6,2,15,0.00
2013-1-15,41,36,30,35,28,26,95,75,56,30.21,29.72,3,0,7,0.00
2013-1-16,33,32,30,32,30,26,95,92,75,30.22,29.88,3,0,6,0.04
2013-1-17,42,34,28,35,28,18,95,78,55,30.07,29.86,7,1,18,0.29
2013-1-18,30,22,15,18,4,-2,65,47,32,30.62,29.92,7,2,15,0.00
2013-1-19,50,37,20,34,25,6,79,61,42,30.49,29.57,9,2,16,0.06
2013-1-20,54,42,28,35,27,10,78,57,34,29.89,29.13,10,3,24,0.00
2013-1-21,28,24,16,21,12,6,93,61,42,30.27,29.89,6,1,14,0.00
2013-1-22,24,19,10,20,7,-3,93,63,34,30.30,29.88,8,2,17,0.00
2013-1-23,16,10,4,2,-5,-8,77,52,37,30.35,30.22,9,3,20,0.00
2013-1-24,20,10,0,-4,-7,-9,75,48,30,30.44,30.16,14,3,24,0.00
2013-1-25,23,15,5,14,-3,-9,93,47,27,30.49,30.25,6,2,16,0.00
2013-1-26,25,15,6,14,4,-6,93,64,34,30.45,30.17,7,2,17,0.00
2013-1-27,31,19,12,6,3,0,67,51,30,30.68,30.44,6,2,16,0.00
2013-1-28,32,23,14,25,14,3,94,71,35,30.67,30.18,3,0,6,0.00
2013-1-29,34,30,25,33,29,24,95,94,93,30.39,30.18,2,0,4,0.19
2013-1-30,61,49,32,59,48,31,98,96,90,30.35,29.49,5,2,28,0.15
2013-1-31,61,48,30,60,39,16,98,74,42,29.64,28.98,34,8,36,0.74